sat.trackr.live / text

‹ back to catalog

STARLINK-32707

NORAD 62478 · 2024-254S

PAYLOAD ACTIVE UNKNOWN

§ Identity

Operator
Country
US
Launch date
2024-12-31
Launch site
AFETR
Launch vehicle
Mass (kg)
RCS (m²)

Purposes: comms

External: N2YO · Heavens-Above · Gunter

§ Orbital elements

Epoch: 2026-05-25T03:09:25.409376Z

Period
94.27 min
Inclination
43.0007°
Eccentricity
0.0001380
Mean motion
15.27581223 rev/d
Perigee alt
482.1 km
Apogee alt
484.0 km
Semi-major
6,861.2 km
B*
4.3143e-4
RAAN
304.6740°
Arg perigee
274.0513°
Mean anomaly
86.0181°
Rev number
7,934

§ Raw data

STARLINK-327071 62478U 24254S   26145.13154409  .00011629  00000+0  43143-3 0  99952 62478  43.0007 304.6740 0001380 274.0513  86.0181 15.27581223 79344

JSON: /api/v1/satellites/62478 · /tle

For live sub-satellite position, see the globe view (requires WebGL).

§ Visibility from observer

Set your observer location to see the next 7 days of passes ≥ 10°. The values pass through the URL so the page stays shareable.

No JS? Fill the form by hand. The geolocation button needs JavaScript.